Regional Weather Roundup
Issued by NWS

Home | Current Version | Previous Version | Text Only | Print | Product List | Glossary On
Versions: 1 2 3 4 5 6 7 8 9 10 11 12 13 14 15 16 17 18 19 20 21 22 23 24 25 26 27 28 29 30 31 32 33 34 35 36 37 38 39 40 41 42 43 44 45 46 47 48 49 50
000
ASUS46 KLOX 171512
RWRCA

SOUTHERN CALIFORNIA WEATHER ROUNDUP
NATIONAL WEATHER SERVICE OXNARD CALIFORNIA
800 AM PDT WED SEP 17 2014

NOTE: "FAIR" INDICATES FEW OR NO CLOUDS BELOW 12,000 FEET WITH NO
SIGNIFICANT WEATHER AND/OR OBSTRUCTIONS TO VISIBILITY.

  -  STATIONS PRECEEDED BY AN ASTERISK (*) ARE NOT NWS OR FAA
     STATIONS AND ARE NOT SUBJECT TO NWS AND FAA QUALITY CONTROL.

CAZ041-042-087-171600-
LA AND ORANGE COUNTY COASTAL AREAS


CITY           SKY/WX    TMP DP  RH WIND       PRES   REMARKS
L.A. DOWNTOWN  SUNNY     80  63  55 CALM      29.73R
L.A. AIRPORT   MOSUNNY   77  65  66 CALM      29.74R
LONG BEACH     SUNNY     81  63  54 CALM      29.73S

CITY           SKY/WX    TMP DP  RH WIND       PRES   REMARKS
AVALON           N/A     72 N/A N/A MISG        N/A
FULLERTON      SUNNY     83  60  45 CALM      29.73R
*GETTY CENTER    N/A     86  61  42 NE3         N/A
HAWTHORNE      SUNNY     79  64  60 CALM      29.74R
*LEO CARRILLO    N/A     75  60  60 CALM        N/A
*LOS ALAMITOS  SUNNY     77  66  69 CALM      29.74R
*REDONDO BEACH   N/A     72  66  81 CALM      29.74R
SANTA ANA      SUNNY     85  59  41 CALM      29.74R
STA MONICA APT SUNNY     76  66  71 CALM      29.74R
TORRANCE       SUNNY     79  64  61 CALM      29.75R
*UCLA            N/A     90  61  37 CALM      29.72S

$$

CAZ547-548-048-171600-
LA COUNTY VALLEYS AND INLAND EMPIRE


CITY           SKY/WX    TMP DP  RH WIND       PRES   REMARKS
BURBANK        SUNNY     83  59  44 CALM      29.76S
VAN NUYS       SUNNY     82  58  43 CALM      29.77R

CITY           SKY/WX    TMP DP  RH WIND       PRES   REMARKS
CORONA AIRPORT SUNNY     80  67  64 CALM      29.77R
*CHATSWORTH      N/A     87  63  43 CALM      29.70S
CHINO          SUNNY     84  67  56 CALM      29.78R
*CLAREMONT       N/A     80  60  50 CALM        N/A
MARCH AFB      SUNNY     82  65  56 NW1       29.82R
*NORTHRIDGE      N/A     82  57  42 CALM        N/A
ONTARIO        SUNNY     84  66  54 CALM      29.79R
*PASADENA        N/A     86  66  51 CALM        N/A
RIVERSIDE      SUNNY     84  64  50 CALM      29.78R
SAN BERNARDINO SUNNY     81  57  44 CALM      29.81R
*SAN GABRIEL     N/A     86  61  42 CALM      29.69S
*SAN RAFAEL HI   N/A     91  69  47 SW6G44      N/A  HX  95
*SAUGUS          N/A     81  53  37 E3          N/A
*WHITEMAN AP   SUNNY     86  57  37 CALM      29.81
*WOODLAND HILL   N/A     88  59  37 CALM        N/A

$$

CAZ054-055-171600-
LA AND SAN BERNARDINO COUNTY MOUNTAINS


CITY           SKY/WX    TMP DP  RH WIND       PRES   REMARKS
*ACTON           N/A     65  56  74 NE2         N/A
*BIG BEAR AIRP SUNNY     52  50  93 CALM      30.18S
*BIG PINES       N/A     62  46  56 CALM        N/A
*CHILAO          N/A     74  57  55 CALM        N/A
MT WILSON NWS    N/A     70  59  68 S1          N/A
SANDBERG       SUNNY     76  38  25 S10       30.03R
*WARM SPRINGS    N/A     77  58  51 CALM        N/A

$$

CAZ028-029-059-060-099-171600-
ANTELOPE VALLEY AND SURROUNDING AREAS


CITY           SKY/WX    TMP DP  RH WIND       PRES   REMARKS
LANCASTER      SUNNY     75  40  28 W5        29.88S
PALMDALE       SUNNY     76  50  40 W3        29.88S
*POPPY PARK      N/A     81  52  36 W6          N/A

CITY           SKY/WX    TMP DP  RH WIND       PRES   REMARKS
29 PALMS       SUNNY     76  63  64 CALM      29.95R
BARSTOW/DAGGET SUNNY     79  62  56 E3        29.87R
BISHOP         SUNNY     64  43  46 N3        29.99R
CHINA LAKE     SUNNY     77  49  37 S3        29.86R
EDWARDS AFB    MOSUNNY   73  42  33 NE3       29.86R
MOJAVE         FAIR      77  43  29 CALM      29.90S
NEEDLES        SUNNY     82  69  64 CALM      29.82S
VICTORVILLE    SUNNY     73  63  68 SE6       29.92R

$$

CAZ039-040-171600-
VENTURA AND SANTA BARBARA COUNTY COAST


CITY           SKY/WX    TMP DP  RH WIND       PRES   REMARKS
CAMARILLO      SUNNY     71  61  70 S5        29.74
NWS OXNARD       N/A     71  63  74 CALM      29.74R
OXNARD AIRPORT SUNNY     68  64  87 CALM      29.74R
*POINT MUGU    SUNNY     74  64  71 NW3       29.74S
SBA APT/GOLETA SUNNY     71  61  70 CALM      29.74R
*SANTA BARBARA   N/A     71  61  71 CALM      29.82
*VENTURA         N/A     69  62  79 CALM      29.78S

$$

CAZ044-045-171600-
VENTURA COUNTY VALLEYS


CITY           SKY/WX    TMP DP  RH WIND       PRES   REMARKS
*SIMI VALLEY     N/A     84  64  50 CALM      29.68F
*OJAI            N/A     76  59  55 CALM      29.69S
*FILLMORE        N/A     78  56  45 CALM      29.64F

$$

CAZ053-171600-
VENTURA COUNTY MOUNTAINS


CITY           SKY/WX    TMP DP  RH WIND       PRES   REMARKS
*LOCKWOOD VLY    N/A     54  37  54 MISG        N/A
*ROSE VALLEY     N/A    N/A N/A N/A MISG        N/A

$$

CAZ034-035-036-171600-
CENTRAL COAST AND SANTA YNEZ VALLEY


CITY           SKY/WX    TMP DP  RH WIND       PRES   REMARKS
SAN LUIS OBISP FOG       57  57 100 CALM      29.83R VSB 3/4
SANTA MARIA    FOG       59  56  89 CALM      29.83R VSB<1/4

CITY           SKY/WX    TMP DP  RH WIND       PRES   REMARKS
*CAL POLY SLO    N/A     54  54 100 W1          N/A
*LOMPOC        CLOUDY    59  55  88 CALM      29.83S VSB<1/4
*PISMO BEACH     N/A     60  57  90 W2        29.83S
*SANTA YNEZ    FAIR      55  52  88 CALM      29.83R

$$

CAZ037-038-051-171600-
SAN LUIS OBISPO COUNTY INTERIOR AND CUYAMA VALLEY


CITY           SKY/WX    TMP DP  RH WIND       PRES   REMARKS
*CUYAMA          N/A     65  44  46 NE3       29.75R
PASO ROBLES    SUNNY     61  47  59 CALM      29.84R

$$

CAZ032-033-061-171600-
SOUTHERN DESERTS


CITY           SKY/WX    TMP DP  RH WIND       PRES   REMARKS
BLYTHE         MOSUNNY   81  72  74 CALM      29.78R
IMPERIAL       SUNNY     84  67  56 W5        29.74R
PALM SPRINGS   SUNNY     87  67  51 CALM      29.80R HX  90
THERMAL        SUNNY     85  70  60 CALM      29.74R

$$

ELSEWHERE ACROSS THE WESTERN UNITED STATES AND MEXICO


CITY           SKY/WX    TMP DP  RH WIND       PRES   REMARKS
DENVER, CO     PTSUNNY   69  43  38 SW9       30.11R
GRAND CANYON,  PTSUNNY   60  52  74 CALM      30.21S
HONOLULU, HI   PTCLDY    79  72  78 N3        29.92S
KAHULUI, MAUI  CLEAR     73  68  83 E5        29.93R
LAKE TAHOE, CA MOSUNNY   52  32  46 CALM      30.10R
LAS VEGAS, NV  MOSUNNY   82  57  42 SE5       29.87R
MAMMOTH LAKES, FAIR      52  37  58 N3        30.19S
MEXICO CITY, M PTSUNNY   63  52  67 NE9       30.35R
PHOENIX, AZ    CLOUDY    82  67  60 E10       29.80R
PORTLAND, OR   CLOUDY    62  56  80 CALM      29.75S
RENO, NV       PTSUNNY   72  35  25 VRB3      29.98S
SALT LAKE CITY MOSUNNY   75  44  33 SE13      29.98R
SAN DIEGO, CA  MOSUNNY   80  70  71 NW7       29.74R
SAN FRANCISCO, PTSUNNY   64  58  80 SW3       29.83R
SAN JOSE, CA   PTSUNNY   62  57  83 E3        29.82S
SEATTLE, WA    PTSUNNY   60  55  83 NW3       29.79F
TIJUANA, MEX   MOSUNNY   88  57  35 E5        29.77

$$

STATION/POSITION TIME  TEMP    WIND        PRES    VSBY  WAVE
                       AIR SEA DIR/SP/G                  HT/PER
                 (UTC) (F)     (DEG/KT/KT) (MB)    (MI)  (FT/S)
POINT ARGUELLO B NOT AVBL
WEST SANTA BARBA 1500   61 60  310/ 21/ 27 1007.2R         5/17
POINT CONCEPTION NOT AVBL
EAST SANTA BARBA 1500   67 66  220/  8/ 10 1007.3R
SANTA MONICA BAY 1500   72 74  310/  8/ 10 1006.8R         5/19



USA.gov is the U.S. government's official web portal to all federal, state and local government web resources and services.